Regional Weather Roundup
Issued by NWS

Home | Current Version | Previous Version | Text Only | Print | Product List | Glossary Off
Versions: 1 2 3 4 5 6 7 8 9 10 11 12 13 14 15 16 17 18 19 20 21 22 23 24 25 26 27 28 29 30 31 32 33 34 35 36 37 38 39 40 41 42 43 44 45 46 47 48 49 50

000
ASUS43 KLSX 242057
RWRMO

WEATHER SUMMARY FOR MISSOURI
NATIONAL WEATHER SERVICE SPRINGFIELD MO
300 PM CST FRI NOV 24 2017

NOTE: "FAIR" INDICATES FEW OR NO CLOUDS BELOW 12,000 FEET WITH NO
       SIGNIFICANT WEATHER AND/OR OBSTRUCTIONS TO VISIBILITY.
       CURRENT SKY AND/OR WEATHER CONDITIONS ARE NOT AVAILABLE FOR
       CHILLICOTHE AND FARMINGTON.

MOZ001>031-035>038-043-044-053-054-242200-
...NORTHERN AND WESTERN MISSOURI...

CITY           SKY/WX    TMP DP  RH WIND       PRES   REMARKS
KANSAS CTY INT CLOUDY    70  39  32 SW16      29.56R
LEE`S SUMMIT   MOSUNNY   73  39  29 SW17      29.58R
ST JOSEPH      SUNNY     75  40  28 W15       29.55R
CHILLICOTHE      N/A     74  39  28 SW12G22   29.53R

$$
MOZ066>068-077>081-088>096-101>105-242200-
...SOUTHWEST MISSOURI...

CITY           SKY/WX    TMP DP  RH WIND       PRES   REMARKS
SPRINGFIELD    SUNNY     73  37  27 SW14G26   29.70F
JOPLIN         SUNNY     74  37  26 SW18G29   29.69F
BRANSON        CLOUDY    72  32  23 SW14G21   29.75F

$$
MOZ032>034-039>042-045>050-055>058-069>072-242200-
...CENTRAL MISSOURI...

CITY           SKY/WX    TMP DP  RH WIND       PRES   REMARKS
COLUMBIA       NOT AVBL
JEFFERSON CITY SUNNY     75  35  23 SW15G24   29.59F
ROLLA          SUNNY     72  36  26 S17G31    29.66F
SEDALIA        LGT RAIN  75  40  28 SW21G31   29.59F
WARRENSBURG    MOSUNNY   72  36  26 SW17G26   29.58R

$$
MOZ051-052-059>065-242200-
...EAST CENTRAL MISSOURI...

CITY           SKY/WX    TMP DP  RH WIND       PRES   REMARKS
ST LOUIS INTL  MOSUNNY   73  37  27 S13       29.63F

$$
MOZ072>076-082>087-097>100-106>115-242200-
...SOUTH CENTRAL AND SOUTHEAST MISSOURI...

CITY           SKY/WX    TMP DP  RH WIND       PRES   REMARKS
CAPE GIRARDEAU SUNNY     60  38  43 S14G22    29.78F
POPLAR BLUFF   SUNNY     65  36  34 SW13      29.78F
WEST PLAINS    SUNNY     69  33  26 S12       29.75F

$$


USA.gov is the U.S. government's official web portal to all federal, state and local government web resources and services.